This demonstration page uses our WeatherBlox Daily Observations layout. Learn more.

Left ArrowRight Arrow

36.17497, -115.13722

Hourly Observations for September 10, 2020

Temp ( °F °C ) Dew Point ( °F °C ) Humidity (%) Winds ( mph kmh ) Pressure ( in mb ) Visibility ( mi km ) Precip ( " mm )
12:53 am 00:53 Clear 69 20.6 24 -4.4 18 18 WNW 3 6 30.05 1018 10 16 N/A
1:53 am 01:53 Clear 68 20 25 -3.9 20 20 NNW 3 6 30.05 1018 10 16 N/A
2:53 am 02:53 Clear 66 18.9 26 -3.3 22 22 N N/A 30.06 1018 10 16 N/A
3:53 am 03:53 Clear 64 17.8 26 -3.3 24 24 WNW 7 11 30.06 1018 10 16 N/A
4:53 am 04:53 Clear 64 17.8 28 -2.2 26 26 W 5 7 30.07 1018 10 16 N/A
5:53 am 05:53 Clear 62 16.7 28 -2.2 28 28 W 6 9 30.09 1019 10 16 N/A
6:53 am 06:53 Sunny 64 17.8 28 -2.2 26 26 WNW 5 7 30.11 1020 10 16 N/A
7:53 am 07:53 Sunny 68 20 27 -2.8 21 21 WNW 3 6 30.13 1020 10 16 N/A
8:53 am 08:53 Sunny 73 22.8 25 -3.9 17 17 VRB 3 6 30.14 1021 10 16 N/A
9:53 am 09:53 Sunny 76 24.4 24 -4.4 14 14 N N/A 30.15 1021 10 16 N/A
10:53 am 10:53 Sunny 78 25.6 25 -3.9 14 14 SE 6 9 30.14 1021 10 16 N/A
11:53 am 11:53 Sunny 78 25.6 25 -3.9 14 14 N N/A 30.13 1020 10 16 N/A
12:53 pm 12:53 Sunny 82 27.8 25 -3.9 12 12 VRB 6 9 30.10 1019 10 16 N/A
1:53 pm 13:53 Sunny 82 27.8 25 -3.9 12 12 N N/A 30.08 1019 10 16 N/A
2:53 pm 14:53 Sunny 85 29.4 25 -3.9 11 11 N N/A 30.05 1018 10 16 N/A
3:53 pm 15:53 Sunny 85 29.4 25 -3.9 11 11 ESE 8 13 30.04 1017 10 16 N/A
4:53 pm 16:53 Sunny 84 28.9 24 -4.4 11 11 SE 3 6 30.03 1017 10 16 N/A
5:53 pm 17:53 Sunny 84 28.9 24 -4.4 11 11 ESE 3 6 30.02 1017 10 16 N/A
6:53 pm 18:53 Sunny 83 28.3 24 -4.4 11 11 SE 3 6 30.02 1017 10 16 N/A
7:53 pm 19:53 Clear 82 27.8 25 -3.9 12 12 N N/A 30.02 1017 10 16 N/A
8:53 pm 20:53 Clear 80 26.7 26 -3.3 14 14 N N/A 30.04 1017 10 16 N/A
9:53 pm 21:53 Clear 77 25 31 -0.6 18 18 WNW 6 9 30.04 1017 10 16 N/A
10:53 pm 22:53 Clear 74 23.3 30 -1.1 20 20 WNW 6 9 30.04 1017 10 16 N/A
11:53 pm 23:53 Clear 72 22.2 29 -1.7 20 20 WNW 8 13 30.04 1017 10 16 N/A

Powered by AerisWeather